Location: Tr�vern
(48.0333°N, 4.6000°W)
Time: 08:32:04
(UTC+00:00)

Cosmos 1437 Rocket - Pass Details

Date: 14 July 2020
Orbit: 506 x 562 km, 81.2° (Epoch: 04 August)

Event Time Altitude Azimuth Distance (km) Brightness Sun altitude
Rises 02:05:18 0° 347° (NNW) 2,741 7.2 -16.8°
Reaches altitude 10° 02:07:30 10° 345° (NNW) 1,834 6.2 -16.6°
Maximum altitude 02:11:32 75° 261° (W) 568 2.7 -16.3°
Enters shadow 02:13:24 30° 181° (S) 982 3.6 -16.2°
